Wind_Speed
22 23 24 24 25 25 25 24 25 27 28 28 28 28 29 30 32 34 35 36 36 36 35 35 35 35 35 35 35 36 37 38 38 39 38 38 37 36 34 33 32 31 30 29 29 29 29 29 28 28 28 28 28 29 29 30 30 30 30 29 28 27 26 26 27 27 27 28 28 28 29 29 31 33 34 34 33 31 29 29 29 29 29 29 29 28
22 23 23 23 24 24 25 25 25 26 28 29 29 29 30 32 34 35 36 36 36 35 35 34 35 35 35 36 36 36 37 37 38 39 39 39 38 37 35 34 32 31 30 29 29 29 29 29 29 28 28 28 28 29 29 30 30 30 31 30 30 29 28 27 27 27 27 28 28 28 28 29 31 33 34 35 34 33 32 31 31 31 31 31 30 28
23 24 23 23 23 24 24 25 26 26 28 29 30 30 31 33 34 34 34 34 34 34 34 34 34 35 36 37 37 37 37 37 37 38 39 39 39 38 36 34 33 31 31 30 30 30 30 30 30 29 29 29 29 29 29 30 30 31 31 31 31 30 29 28 28 28 28 28 28 28 29 30 31 32 34 34 35 35 35 35 34 34 34 33 31 29
22 23 23 24 24 24 24 25 26 27 27 28 29 31 32 33 33 32 32 32 33 34 34 34 34 34 35 36 37 37 37 37 37 38 38 39 39 38 37 35 33 32 31 31 31 31 30 31 31 31 31 31 31 31 30 30 30 31 31 31 31 30 29 29 29 29 29 29 29 30 31 31 32 32 33 33 34 35 36 37 36 36 35 33 31 29
22 22 23 24 24 24 25 25 26 27 27 27 28 30 30 30 31 31 31 32 33 33 33 34 34 34 34 35 36 37 38 38 37 37 38 39 39 39 37 35 34 33 32 32 31 31 32 32 32 32 33 33 33 33 33 32 31 31 31 30 30 30 29 28 28 29 30 30 30 30 31 32 32 32 32 32 33 34 36 36 36 35 34 32 31 29
22 22 23 23 23 24 25 25 25 25 26 26 27 27 27 27 28 28 29 30 30 31 32 32 33 34 35 36 37 38 38 38 37 37 37 38 38 38 37 35 34 33 33 32 32 33 33 33 33 33 33 33 34 34 34 33 32 31 31 31 30 30 29 29 28 28 29 30 30 31 31 32 33 33 33 33 33 34 35 35 34 33 32 31 29 28
23 23 22 23 23 24 24 24 24 24 24 25 25 25 25 26 26 27 28 28 29 30 31 31 32 33 35 36 37 37 37 37 36 36 36 37 37 38 37 35 33 32 32 33 34 34 34 34 33 32 32 32 33 34 34 34 33 32 31 31 31 30 30 29 28 28 28 30 31 31 32 32 33 34 34 34 34 35 35 35 34 32 31 30 29 28
23 24 23 23 23 24 24 23 23 23 23 25 26 26 26 27 27 27 27 28 29 29 29 29 30 31 31 33 34 34 34 35 35 36 36 37 37 38 38 37 35 33 33 34 35 35 35 34 33 31 31 31 32 32 33 33 33 32 32 32 31 31 31 30 29 28 28 29 30 32 32 33 33 33 34 35 35 36 36 35 34 32 31 30 29 28
22 23 23 22 22 23 24 23 22 22 24 25 25 26 27 28 28 28 28 28 27 27 26 27 28 28 28 28 29 30 31 32 33 34 34 35 36 37 38 38 38 37 36 37 37 37 36 34 32 31 30 30 31 31 31 32 32 32 33 32 32 32 32 31 31 30 29 29 30 31 32 33 33 33 33 34 35 36 36 35 34 32 30 30 29 29
21 22 22 22 22 21 22 24 24 23 23 25 25 25 25 26 27 27 27 27 26 25 25 25 26 26 26 26 26 27 29 30 31 31 32 33 34 35 37 38 39 39 39 39 38 37 36 34 32 31 31 31 31 31 31 31 31 32 33 33 33 33 33 33 32 31 30 29 29 30 32 33 33 33 32 31 32 33 34 35 33 30 29 29 29 29
19 20 21 22 22 21 21 22 24 24 24 25 25 25 23 23 23 24 25 25 26 26 25 26 26 26 27 27 27 27 28 28 29 30 30 31 31 32 33 35 37 38 39 40 39 38 35 34 32 32 32 32 32 32 32 31 31 32 33 34 34 34 34 34 33 32 31 30 29 30 31 32 33 33 32 32 31 30 31 31 30 29 29 29 29 29
18 19 20 21 21 21 21 22 23 23 23 22 22 22 22 21 21 22 23 25 25 26 27 28 28 28 28 28 29 28 27 28 28 29 29 29 28 28 28 29 31 33 35 37 38 38 36 34 33 33 33 33 33 34 33 32 32 32 33 34 34 35 35 35 34 33 32 31 30 30 31 32 32 33 33 33 32 31 29 28 28 28 28 29 30 29
18 19 20 20 21 21 21 22 22 22 21 20 20 20 21 22 22 23 24 26 26 26 27 29 29 29 29 29 29 28 28 28 28 28 28 27 26 24 24 24 25 27 28 31 33 35 35 35 35 34 34 34 34 34 34 33 32 32 33 34 35 35 36 35 35 34 33 32 32 31 32 32 32 33 33 34 34 34 32 30 28 28 29 30 30 31
18 19 19 19 20 20 21 21 21 21 21 21 21 22 24 25 24 24 25 26 27 26 26 27 28 28 27 27 27 28 28 27 27 27 26 25 23 22 22 23 24 25 25 26 28 29 30 32 34 35 35 35 35 36 35 34 33 32 33 33 34 35 36 36 35 34 33 32 32 32 32 32 32 32 33 34 35 35 35 34 32 32 31 31 32 32
17 18 18 17 18 19 20 20 21 22 22 22 23 24 25 25 25 24 24 25 26 27 26 26 27 27 25 24 24 25 27 26 25 23 22 22 22 22 23 23 24 25 25 25 25 25 25 26 29 31 34 35 37 37 37 35 33 32 32 33 33 34 35 35 35 33 32 32 32 32 32 32 32 32 32 33 35 36 36 36 35 34 34 33 33 33
17 17 17 17 18 19 19 20 21 22 23 24 24 24 24 24 24 24 23 24 26 26 24 23 22 23 24 23 23 23 25 25 23 21 21 23 25 27 27 26 25 24 24 23 23 25 25 25 26 27 30 33 36 38 37 35 33 31 31 31 32 33 34 34 33 32 31 31 31 31 31 31 31 31 31 32 34 35 35 35 35 35 34 34 33 33
16 16 17 17 18 19 21 21 22 23 24 24 24 23 23 24 24 24 24 24 25 24 22 19 13 10 14 21 22 21 21 24 24 23 23 25 29 32 31 29 27 25 24 23 23 23 25 26 27 27 27 30 33 36 37 36 33 31 30 30 30 31 31 31 31 30 30 30 30 30 30 30 30 30 31 32 33 33 34 34 34 33 33 33 32 32
17 17 17 18 19 20 21 21 22 22 23 23 23 24 24 25 25 24 23 24 23 22 21 20 16 11 10 16 20 21 20 24 25 25 24 26 30 32 32 31 29 28 26 24 23 23 23 25 27 29 29 28 30 34 36 36 34 31 29 28 28 28 28 28 28 29 29 29 29 30 30 30 30 30 31 32 33 33 33 32 32 32 32 32 32 32
19 19 19 19 20 21 21 21 21 21 22 22 23 24 25 26 26 25 25 25 24 23 22 21 21 21 20 22 25 26 25 27 27 25 25 26 29 31 33 32 30 29 27 26 25 23 23 24 26 27 28 28 27 29 32 34 34 32 30 28 28 27 28 28 28 28 28 28 29 29 30 30 30 31 31 32 33 33 32 31 31 31 32 32 32 33
21 21 21 21 22 23 22 22 22 22 23 24 24 24 24 26 26 25 26 26 25 24 23 23 23 23 24 26 29 30 28 29 28 27 26 26 28 30 32 31 30 30 29 29 27 26 24 24 24 25 26 27 27 26 26 27 29 30 30 29 28 28 28 28 28 28 27 28 28 28 28 29 30 30 31 32 32 32 32 31 31 31 32 33 33 34
23 23 24 23 23 23 23 24 24 24 25 25 25 24 24 24 24 25 25 25 25 25 25 24 24 25 26 27 29 31 31 30 29 28 27 26 27 29 30 30 30 30 30 31 30 29 27 26 25 25 25 27 28 28 27 26 25 26 28 29 29 29 29 28 28 27 27 27 26 26 26 27 27 29 30 31 32 32 32 32 32 32 33 33 33 34
23 25 26 26 25 24 25 26 27 26 26 26 24 23 23 23 23 23 24 23 23 23 24 23 24 26 27 28 30 33 34 34 32 29 26 23 25 29 30 30 29 29 30 31 32 31 30 28 27 26 26 26 27 27 27 27 27 26 27 28 29 29 29 29 28 27 26 26 25 25 25 25 25 26 28 29 30 31 32 32 33 33 34 34 33 34
24 26 27 28 27 26 27 27 28 28 27 26 24 23 23 23 24 24 24 23 23 24 25 26 27 28 29 29 31 33 36 36 33 29 24 17 19 27 29 30 29 29 30 32 33 33 33 31 29 28 27 27 27 27 26 26 26 26 27 28 29 30 30 29 29 28 27 26 25 25 24 24 24 25 26 27 28 29 31 32 33 34 34 34 34 33
26 27 28 28 28 29 29 29 29 29 28 27 26 26 27 27 28 29 28 28 28 28 28 28 28 28 27 27 28 30 33 34 32 28 23 19 20 25 27 27 27 28 31 33 35 35 35 34 32 30 28 27 27 27 27 26 25 25 26 28 29 30 30 30 29 28 27 26 25 25 24 24 24 25 25 26 26 27 28 30 31 33 34 34 34 34
27 28 28 29 29 30 31 32 32 32 31 31 31 31 31 30 30 29 29 29 28 27 26 24 23 22 23 23 24 26 28 29 27 25 21 19 20 24 26 26 26 26 30 33 35 37 36 35 33 30 28 28 28 28 27 27 26 26 26 27 29 29 29 28 28 27 26 26 25 25 25 25 25 25 25 26 26 26 26 27 29 31 33 34 35 35
28 29 30 31 32 32 33 34 35 35 35 35 35 35 34 33 31 28 26 23 22 21 21 19 18 17 18 18 19 22 24 25 25 23 20 17 18 21 24 25 24 24 26 30 33 35 35 34 32 30 29 28 28 28 28 28 28 28 28 29 29 29 28 26 25 25 26 26 26 26 26 26 27 27 26 26 26 26 25 26 27 29 31 33 34 35
30 31 32 33 33 33 33 33 34 34 34 34 35 35 35 34 30 25 20 19 19 18 17 14 11 12 16 17 19 21 23 24 23 22 20 18 17 19 22 24 23 23 24 26 29 31 32 32 32 31 30 29 28 27 27 27 28 29 29 29 28 27 26 23 22 22 23 25 26 27 27 27 28 28 27 27 26 26 25 25 25 26 28 30 31 33
30 31 32 33 33 33 33 32 32 32 32 33 33 33 33 31 27 21 19 19 20 19 16 13 10 8 11 15 19 22 24 24 24 23 21 18 16 17 22 24 24 23 23 24 27 30 31 32 32 31 30 29 27 26 26 26 26 27 28 28 26 24 23 21 19 20 21 24 26 28 28 28 28 28 27 27 27 27 26 25 25 24 25 26 28 30
30 31 32 33 33 33 32 31 30 30 30 31 31 31 29 27 23 20 19 20 20 19 17 16 15 13 13 16 19 21 21 22 23 22 20 16 15 18 23 24 23 21 20 20 22 25 27 28 29 29 29 28 26 25 24 24 25 25 26 25 24 22 21 21 21 21 23 25 27 28 28 27 27 27 27 27 27 27 26 25 24 23 23 24 26 28
29 31 32 33 33 32 30 28 28 28 28 29 28 27 26 24 23 22 22 22 21 18 18 17 16 16 15 14 13 12 15 19 20 19 17 14 13 16 20 20 20 18 16 14 12 12 16 21 24 25 26 25 24 22 22 23 23 24 24 23 22 21 20 20 21 23 25 27 28 28 27 26 26 27 27 27 28 27 27 26 24 22 22 23 24 26
27 28 29 30 30 28 26 24 24 25 27 27 27 26 24 23 23 24 24 22 21 19 17 16 16 16 15 10 6 4 7 17 21 20 18 14 12 14 16 16 16 16 16 12 6 2 6 11 16 21 22 22 21 20 20 19 20 20 20 21 21 21 20 19 19 20 23 26 27 27 26 26 25 26 26 27 28 28 28 27 25 23 21 22 24 25
25 25 26 28 28 26 24 23 23 25 26 26 26 24 23 22 22 22 22 21 21 20 18 17 17 16 16 13 9 7 10 20 24 23 21 17 14 15 16 15 15 17 19 16 9 4 3 3 9 18 24 26 25 23 20 18 17 17 17 17 19 20 20 19 18 19 21 24 26 26 25 25 24 24 25 26 27 28 28 28 26 24 22 22 23 25
24 24 25 27 27 25 24 24 25 26 26 25 24 23 21 21 20 20 21 21 21 20 19 18 17 18 18 18 18 17 20 24 25 25 23 20 16 14 15 16 16 17 18 17 13 9 5 4 7 14 20 24 26 25 23 21 20 18 17 16 17 18 18 18 18 19 21 23 24 24 24 24 23 23 23 24 25 27 28 28 27 26 24 23 24 25
23 24 24 25 25 24 24 25 26 26 25 24 23 22 22 21 21 21 21 22 21 21 20 20 19 19 19 19 20 21 23 24 24 25 24 21 17 14 15 15 15 15 15 13 10 8 6 7 8 11 14 18 21 23 23 23 21 20 18 16 16 16 16 17 17 18 20 21 22 23 22 22 22 21 21 22 23 25 27 28 28 27 25 25 25 25
23 24 24 24 24 24 25 26 26 25 24 23 23 23 23 22 22 23 23 23 23 22 22 21 21 21 21 20 18 18 20 22 24 25 25 23 20 17 15 13 13 13 11 10 8 7 6 7 8 10 12 14 18 21 22 21 20 19 18 17 16 16 16 16 16 17 19 20 21 22 21 20 20 20 20 21 22 24 26 27 27 26 26 26 26 26
23 23 23 23 23 24 25 25 25 25 24 24 23 23 23 23 23 24 24 24 24 23 23 22 22 22 23 23 21 20 22 24 26 26 26 26 23 19 15 13 14 14 13 12 11 10 8 9 10 12 12 12 13 17 20 20 19 18 19 18 18 18 17 17 17 18 19 20 21 21 21 20 20 20 20 20 20 22 24 26 26 26 25 26 27 27
21 21 21 22 22 22 23 24 24 25 24 24 24 24 24 24 25 25 25 25 25 24 24 24 24 23 23 23 23 23 25 26 27 27 26 26 25 23 19 17 17 17 15 14 14 14 13 11 11 12 12 11 11 13 17 19 19 19 19 19 20 19 19 18 17 17 17 19 21 21 21 20 20 20 20 20 20 20 21 24 25 25 25 26 27 28
19 20 20 20 20 20 20 21 23 24 25 26 27 27 27 27 26 26 26 25 25 25 25 25 25 25 25 24 24 25 25 26 27 27 27 26 25 23 21 20 19 18 16 15 15 15 14 10 7 6 7 10 13 15 17 18 18 18 18 19 20 20 19 17 16 15 16 17 19 20 20 20 20 20 20 20 19 19 20 22 23 24 24 25 27 28
18 18 18 18 17 18 19 20 22 25 27 28 29 29 29 29 28 26 25 24 24 25 25 26 26 26 26 26 26 26 26 27 27 27 27 26 25 23 22 20 20 19 17 17 16 16 15 12 9 6 5 9 13 16 17 17 16 17 18 19 20 19 17 15 14 15 16 17 18 19 20 20 20 20 20 20 20 19 20 21 22 23 24 25 27 28
17 17 17 17 17 18 20 21 23 26 27 28 29 29 29 28 27 26 24 23 23 24 26 26 27 26 27 27 27 27 27 27 27 26 26 25 25 24 23 22 21 21 20 18 17 16 16 16 15 15 14 13 13 15 16 16 16 16 16 16 16 16 16 15 15 15 16 17 18 18 19 19 19 19 20 20 20 20 20 21 22 23 24 25 26 26
18 18 18 19 19 20 21 23 25 27 27 28 28 28 28 26 25 23 22 22 23 25 26 27 27 27 28 28 28 28 28 28 27 26 26 25 25 24 24 24 23 22 21 19 18 17 17 17 17 17 17 16 16 16 16 16 15 15 14 14 15 17 20 19 17 15 15 16 16 16 15 15 16 17 18 19 20 21 21 21 22 23 24 26 26 26
19 19 19 20 20 21 23 25 26 26 26 26 26 25 24 23 21 20 20 21 22 24 25 25 24 25 26 28 29 29 29 28 28 27 26 26 26 25 25 25 24 23 22 21 19 18 17 17 17 17 17 17 16 15 15 16 16 15 14 14 17 20 21 19 16 13 12 13 12 10 9 10 12 13 14 16 19 21 22 22 23 23 24 26 28 28
19 19 19 20 22 23 23 24 24 24 23 23 23 23 22 21 20 20 20 20 21 22 23 23 22 22 22 23 25 27 29 29 29 28 27 27 26 26 25 24 24 24 23 21 19 18 18 16 16 16 17 17 16 16 16 16 16 15 14 15 16 16 13 14 13 12 12 12 11 9 10 13 15 16 15 15 17 20 22 23 24 25 25 26 28 30
19 19 20 21 21 22 23 23 22 22 21 20 19 20 22 22 22 22 21 20 21 22 22 22 22 22 21 22 23 24 26 29 29 29 28 27 26 25 24 24 23 23 22 21 19 18 17 16 15 16 16 17 17 16 17 17 16 15 14 15 16 16 14 14 14 15 15 14 12 11 11 13 16 19 19 18 15 16 20 23 25 25 25 26 28 30
20 20 20 20 20 20 20 20 20 19 19 18 19 20 23 24 23 22 21 21 21 22 22 22 21 19 19 20 21 23 24 26 27 29 29 28 27 25 24 23 23 23 23 22 21 19 17 16 16 16 16 16 16 17 17 17 17 16 15 15 16 18 19 18 18 17 16 15 14 12 12 14 16 18 19 18 15 12 14 19 22 24 25 26 28 30
19 20 20 20 20 20 19 19 19 19 19 20 21 22 23 24 24 23 22 22 21 21 21 21 19 17 16 18 20 21 22 24 25 27 28 28 28 27 25 24 24 24 23 23 23 23 22 19 18 17 16 16 15 16 17 18 17 16 16 16 15 15 15 16 17 17 17 15 14 13 12 13 14 15 15 16 14 10 7 11 17 21 24 26 29 30
19 19 20 20 20 19 19 19 19 20 20 20 21 22 23 23 24 23 22 22 21 21 20 19 18 17 17 18 19 19 20 22 23 25 26 27 28 28 27 27 26 25 25 25 25 25 24 23 22 20 17 15 13 14 15 16 16 15 15 14 13 11 11 13 16 17 17 17 15 13 11 10 10 10 12 14 14 11 6 6 10 16 22 26 29 31
19 20 20 20 20 20 20 20 20 20 20 20 21 21 22 22 22 21 21 21 21 20 19 18 18 18 18 19 19 19 20 20 22 23 24 25 26 27 28 28 28 27 27 26 26 26 26 26 24 22 20 17 14 13 14 15 15 14 13 12 10 9 10 13 15 17 18 18 17 15 12 10 9 9 11 13 12 10 7 4 6 11 17 23 27 29
20 20 20 20 20 20 20 20 20 20 20 20 21 21 22 22 21 20 20 21 21 20 18 18 17 17 18 19 20 21 21 21 21 21 22 22 23 24 26 27 27 27 26 26 26 26 25 25 24 23 22 20 18 16 16 15 15 15 14 12 11 11 12 14 16 17 18 18 17 15 13 12 12 12 12 12 10 8 7 6 6 8 12 18 22 25
20 20 20 20 19 19 20 20 20 20 19 19 19 20 21 21 22 21 21 21 20 19 18 18 17 17 17 19 20 21 21 20 20 20 20 21 22 22 23 23 23 23 22 21 21 21 20 19 19 21 21 21 20 19 17 16 16 15 14 14 13 13 14 15 16 17 17 17 16 15 14 14 15 15 14 13 10 8 7 7 8 8 10 13 17 21
21 21 20 20 19 19 20 20 20 20 19 19 19 19 19 20 21 21 21 20 20 19 19 19 17 17 17 18 20 21 21 20 18 18 19 20 20 20 20 20 20 18 16 15 14 13 10 8 9 12 15 17 18 19 19 17 16 14 13 13 14 14 14 15 16 16 16 16 15 15 15 16 16 17 16 14 11 8 6 7 9 10 10 12 15 17
Wind_Direction
311 313 315 316 317 317 315 317 318 316 314 313 313 313 312 311 309 307 306 305 305 305 305 304 304 303 302 300 299 298 296 294 292 290 287 284 282 279 277 276 275 274 274 275 276 277 278 278 277 277 276 276 274 271 268 264 262 262 264 266 267 264 259 254 250 248 247 247 247 245 241 234 228 226 225 222 218 215 215 216 217 219 221 223 224 225
313 313 314 315 317 316 313 315 316 315 314 313 313 313 313 312 310 309 307 307 307 306 306 305 304 303 302 301 300 298 297 296 294 292 290 287 284 280 277 275 273 271 271 272 274 275 277 277 277 277 277 277 276 274 271 266 263 261 262 264 266 266 263 258 253 250 248 247 245 243 240 235 230 228 227 225 222 220 219 220 222 223 224 224 224 223
314 313 312 314 315 314 312 313 313 312 312 311 311 311 311 310 309 308 308 307 306 305 305 304 304 303 302 301 300 299 298 297 295 294 292 289 285 281 277 274 271 269 269 270 272 274 275 276 277 277 277 277 277 276 273 270 265 262 261 262 264 265 263 260 255 251 249 247 244 241 238 235 231 229 228 227 225 223 222 222 224 225 225 224 222 220
314 313 313 314 314 312 310 311 311 311 310 309 309 308 308 307 307 306 305 305 304 303 303 302 302 302 301 300 300 299 298 297 296 295 293 290 286 282 277 273 270 268 268 269 270 272 274 275 276 277 277 277 277 276 274 271 268 264 262 262 263 263 263 260 256 252 250 248 246 242 238 235 233 231 229 229 228 226 224 223 224 225 226 223 220 219
313 312 313 314 313 310 310 310 310 310 310 308 307 307 306 305 304 304 304 303 303 302 302 302 301 300 300 300 299 299 298 297 296 295 293 291 287 282 276 272 268 267 267 268 269 270 272 274 275 276 277 277 277 276 274 271 268 265 263 263 263 263 262 260 257 253 250 249 247 245 241 239 237 235 233 231 230 229 226 224 224 225 227 225 221 218
311 311 313 313 311 310 310 310 310 311 310 309 308 307 306 305 304 304 303 303 303 302 302 301 300 299 299 298 298 298 298 297 296 294 293 290 287 282 276 270 266 265 265 266 267 268 270 272 274 276 277 277 276 275 273 270 267 264 263 262 263 263 263 261 258 255 251 249 248 247 245 243 242 240 238 236 234 231 227 224 223 225 228 226 222 218
309 310 312 311 310 309 310 309 310 312 313 312 311 310 309 308 306 305 303 303 302 301 300 300 298 298 297 297 297 297 296 296 295 293 292 290 287 282 276 270 265 263 263 264 265 267 269 272 274 275 276 277 276 274 272 269 266 263 261 261 261 262 263 263 261 257 253 250 248 248 247 246 244 243 241 239 236 233 228 223 221 223 227 227 224 221
308 309 311 311 311 311 310 309 311 314 315 315 315 314 313 311 308 306 304 303 302 300 299 298 297 296 295 295 296 296 295 294 293 292 291 289 287 283 278 273 268 265 263 263 265 267 269 271 273 274 276 277 276 275 272 269 265 262 260 259 259 260 262 262 262 260 257 252 249 247 247 246 244 243 241 239 237 233 227 221 219 219 222 223 224 223
306 308 309 309 311 311 311 310 311 314 316 316 315 314 313 311 309 307 305 303 302 301 300 299 298 297 297 297 297 298 297 296 295 293 290 288 286 283 280 276 271 268 265 264 265 266 268 270 271 273 275 276 277 276 273 269 265 261 259 257 257 257 259 260 261 261 259 255 252 249 246 245 244 242 241 239 236 232 226 221 217 217 217 219 221 223
303 305 307 307 308 308 308 308 309 311 313 312 310 309 309 308 307 307 307 305 304 304 304 303 302 302 303 303 304 304 304 303 301 298 294 290 286 283 280 276 273 269 267 266 265 266 267 269 270 271 273 275 277 277 274 270 264 260 258 256 255 255 255 257 258 259 258 256 253 250 247 245 243 242 241 239 236 230 224 220 217 216 215 217 219 222
305 305 306 306 306 306 304 304 306 308 309 308 307 305 304 304 306 308 308 307 307 307 306 304 304 304 306 306 306 307 309 308 307 305 302 297 292 286 281 277 273 270 268 267 266 266 266 266 268 269 271 273 274 275 274 269 264 259 257 256 255 254 254 255 256 256 255 254 252 250 248 245 243 241 239 239 236 231 225 220 217 215 215 216 219 222
308 308 307 306 306 306 306 305 305 307 308 308 307 307 306 306 307 307 306 305 305 306 305 302 300 300 301 302 303 305 306 306 307 308 308 306 301 296 289 282 277 272 269 267 265 264 263 263 264 265 267 269 272 273 272 268 262 258 255 255 256 256 255 255 255 254 253 252 250 249 247 244 242 239 237 236 236 234 231 225 221 219 219 220 222 224
310 310 308 307 307 308 309 309 309 309 309 309 308 307 306 307 306 304 301 299 299 300 301 299 298 296 296 297 299 300 301 303 305 308 312 314 313 310 305 299 292 285 278 271 266 262 260 260 260 261 263 266 269 270 270 266 261 256 254 254 256 257 257 257 255 254 252 251 250 248 246 244 241 239 236 235 234 234 234 233 231 228 227 226 227 228
312 312 310 309 309 310 311 311 310 309 309 308 307 305 304 304 304 301 298 296 296 297 298 296 295 295 296 296 296 297 298 301 305 310 314 316 318 319 318 315 312 308 302 293 281 271 264 259 257 258 260 263 266 268 268 266 261 256 252 252 254 256 258 258 256 254 252 251 250 249 247 244 242 240 237 235 234 234 234 235 235 234 233 232 232 232
314 313 311 310 310 310 311 311 310 308 308 308 307 305 304 303 302 301 299 297 297 298 298 296 295 295 295 295 295 296 298 302 308 314 315 314 313 314 316 317 316 315 315 312 305 297 285 272 262 257 257 261 264 267 268 266 263 257 253 251 251 254 256 257 257 255 253 252 251 250 248 246 244 242 240 237 235 234 234 235 235 235 234 234 233 232
311 310 309 308 308 308 309 309 308 307 307 308 308 306 305 304 303 303 301 299 299 300 300 299 299 298 296 295 295 296 298 305 312 315 314 310 306 306 310 312 312 311 312 312 312 311 308 299 286 272 262 259 261 264 266 266 265 261 256 253 251 252 255 257 257 256 255 254 254 253 251 249 247 245 243 240 238 236 235 235 234 234 234 233 232 230
306 305 305 305 304 305 307 307 305 305 305 306 306 305 304 303 304 304 302 301 301 301 301 302 303 303 300 298 296 295 298 305 310 312 311 307 303 302 304 307 306 305 305 305 305 307 310 310 307 298 282 268 262 261 263 265 265 263 260 256 254 254 255 257 259 259 259 258 257 256 255 253 251 249 246 243 240 238 237 235 234 233 232 231 230 228
300 300 300 301 301 302 304 305 304 303 303 303 304 304 303 303 303 303 302 300 299 299 298 299 298 297 298 298 295 295 298 301 304 306 306 303 300 300 301 302 300 299 300 299 299 300 304 307 310 309 303 288 272 262 260 261 263 263 262 259 257 256 256 258 260 261 260 260 259 258 257 257 255 252 248 244 242 239 238 236 234 232 231 229 227 226
297 297 297 297 298 299 300 302 302 301 301 301 302 303 302 302 301 300 298 296 294 292 292 291 291 290 290 290 291 293 295 296 298 300 300 299 299 299 300 299 298 296 295 294 294 295 299 302 305 307 308 304 291 274 262 258 259 260 261 260 259 259 259 260 261 261 260 260 260 259 259 258 256 254 251 247 244 241 239 237 235 232 230 227 225 224
294 294 293 295 296 296 296 297 297 297 297 297 298 299 298 298 298 296 294 293 291 289 286 285 284 284 285 286 288 290 292 294 295 296 296 296 296 296 297 296 295 294 293 291 291 292 295 297 300 302 303 305 304 297 283 268 259 257 258 259 261 261 262 262 262 262 261 260 259 260 259 259 258 256 254 251 249 246 242 239 237 234 230 227 225 223
293 291 291 291 291 292 293 294 294 293 293 293 292 291 292 293 293 291 291 291 290 288 285 283 282 282 284 284 285 287 288 290 290 291 292 293 292 291 292 293 293 292 291 289 289 290 291 293 294 296 297 298 300 302 301 292 278 265 259 259 261 264 265 265 264 264 263 262 261 261 261 260 259 257 256 254 252 249 246 243 240 237 233 229 226 223
290 290 291 290 288 286 287 288 289 289 289 288 285 284 285 287 286 286 287 287 287 287 287 285 285 285 286 285 285 286 286 285 284 284 288 289 287 286 288 290 291 290 289 288 288 289 290 290 291 291 292 294 295 296 297 298 293 284 273 266 264 265 266 267 266 265 264 264 263 262 262 262 261 259 257 255 253 251 248 246 243 240 237 233 229 226
287 288 290 290 287 285 284 285 285 286 285 284 281 279 279 279 280 282 282 282 282 284 286 287 288 289 289 288 288 287 285 282 280 279 282 282 282 284 287 289 289 288 287 287 288 289 289 288 288 288 288 289 290 290 290 291 292 290 284 276 269 266 265 265 265 265 264 264 264 263 263 262 262 261 260 257 255 252 249 247 244 242 240 237 233 230
291 290 290 290 289 288 287 286 285 285 285 284 283 282 281 280 281 282 281 281 281 283 284 285 285 286 286 288 288 288 285 283 280 278 277 277 280 283 285 286 285 285 285 286 287 288 288 287 286 285 284 284 283 283 283 284 286 288 288 282 275 268 264 262 262 263 263 263 263 263 263 262 262 261 260 259 257 255 252 248 245 243 241 239 237 234
296 294 292 292 291 290 289 288 288 288 288 288 287 288 288 288 287 287 286 285 285 284 283 280 278 278 281 284 286 288 287 285 282 277 274 276 279 282 283 283 283 283 285 286 287 287 287 287 287 285 283 280 279 278 277 278 280 283 285 283 277 269 263 259 258 258 260 261 262 262 262 262 262 262 261 260 259 257 255 251 247 244 242 240 239 237
298 296 295 294 293 292 291 290 291 291 291 291 291 292 293 293 292 291 289 289 288 287 284 282 279 280 283 286 288 290 292 291 286 279 274 275 279 282 283 283 283 283 285 286 287 287 287 288 288 286 283 279 276 274 273 274 275 278 280 279 275 268 262 258 255 255 257 260 262 263 263 263 262 262 261 260 259 258 257 254 250 246 243 241 240 238
300 298 297 296 295 294 292 292 292 292 292 292 292 293 294 295 294 291 289 290 290 289 286 287 287 289 292 292 292 293 294 293 289 284 279 277 279 281 282 283 283 284 285 287 287 287 288 288 288 287 284 280 276 273 271 271 272 274 275 274 269 263 259 258 256 257 260 264 265 265 264 263 263 262 261 259 258 257 256 255 252 248 244 241 240 239
302 301 300 297 296 294 293 292 292 292 293 294 294 294 294 293 291 289 288 291 292 290 287 289 290 290 292 291 289 289 289 288 287 285 282 280 278 279 281 283 284 284 285 286 286 286 286 286 286 286 285 282 278 274 271 270 269 269 269 267 262 256 255 258 263 267 271 272 271 268 265 264 262 261 260 258 256 255 255 254 252 249 245 241 239 237
307 306 303 300 297 295 293 292 292 293 295 295 295 295 293 291 287 285 286 289 291 290 287 285 284 284 285 286 286 285 284 282 283 284 284 279 276 278 282 285 285 284 283 285 286 287 286 286 287 287 286 284 280 274 270 267 265 264 263 260 256 253 254 259 267 274 279 279 276 271 267 264 261 259 257 255 253 252 252 252 251 248 244 239 236 234
311 310 308 304 300 295 292 291 292 295 297 297 297 296 293 289 284 282 284 287 288 287 286 285 284 285 288 291 291 288 286 285 286 287 286 280 277 281 287 290 290 288 288 289 289 289 290 293 294 294 291 288 283 276 271 267 263 260 257 256 255 256 259 264 269 275 280 280 278 274 271 266 262 258 255 252 250 248 248 248 248 245 241 237 233 231
313 312 310 307 303 299 295 295 296 298 300 302 303 301 297 291 286 284 285 285 284 282 282 284 286 288 292 297 298 294 292 292 292 292 289 286 283 285 291 295 297 298 300 303 307 311 306 308 312 313 310 307 302 295 288 280 272 264 259 257 256 258 262 266 271 275 277 277 277 276 275 272 267 260 254 250 247 245 244 244 244 242 238 233 229 227
313 312 311 310 308 306 303 301 299 300 303 307 309 308 304 297 291 289 288 286 284 281 280 280 283 287 289 289 287 286 288 291 291 291 288 286 282 282 285 289 294 297 298 298 294 289 308 322 324 323 323 322 319 315 312 307 299 289 279 273 269 266 266 267 267 269 270 272 274 275 277 275 271 265 256 249 245 242 241 241 241 240 236 231 226 223
311 311 310 311 310 308 305 302 300 301 304 308 311 311 308 303 299 295 293 291 288 285 283 282 283 286 288 286 285 284 285 288 290 291 288 284 280 279 280 283 287 289 289 284 278 272 274 282 303 312 316 318 318 319 321 322 320 316 307 298 289 283 277 271 265 262 263 267 271 275 277 277 275 269 260 251 244 240 238 238 239 238 235 229 225 221
310 309 308 308 308 306 304 302 301 302 304 307 310 311 310 308 306 304 301 298 294 290 287 286 285 285 287 286 285 284 286 289 293 295 293 288 284 281 279 278 278 278 278 275 272 272 274 284 295 304 308 311 313 314 316 318 320 320 318 313 306 298 290 279 269 263 263 267 271 275 278 278 276 272 265 254 244 238 236 236 237 236 232 228 224 220
308 307 306 305 305 305 305 304 302 302 302 304 307 309 311 311 311 310 308 305 302 298 294 290 287 285 284 283 284 286 289 293 299 303 303 299 294 288 282 277 277 280 282 285 290 295 296 298 302 306 308 309 308 308 309 310 312 314 316 318 317 313 306 295 285 276 272 271 272 274 275 276 274 272 267 259 248 239 234 233 234 233 230 226 223 219
305 303 303 303 304 305 305 304 302 301 302 304 307 310 311 312 312 312 311 310 308 305 302 299 296 294 291 289 287 289 294 299 305 309 309 307 302 296 290 289 291 295 297 301 306 310 311 309 307 306 305 305 304 304 304 304 306 308 311 315 318 319 317 312 305 296 287 279 275 274 273 271 269 268 266 263 255 244 236 232 231 230 227 224 222 220
302 300 299 301 303 304 305 305 305 305 306 309 311 312 312 312 312 312 311 311 310 310 309 308 307 306 304 302 300 299 300 303 306 307 307 307 305 299 293 292 293 293 293 295 298 302 304 305 304 302 300 296 294 296 298 300 302 304 306 309 312 314 315 315 315 310 301 289 282 277 274 268 264 262 262 262 259 252 242 234 230 228 225 224 223 222
300 298 297 299 302 306 309 310 312 313 314 314 313 312 311 310 310 310 310 311 311 312 312 312 313 313 312 311 309 307 305 304 303 303 303 305 305 301 293 291 290 288 285 283 285 288 292 295 298 297 294 289 287 287 291 295 299 301 303 305 306 307 309 314 318 319 313 303 294 286 278 270 262 257 257 258 257 253 246 239 232 227 224 224 225 224
304 303 302 305 311 317 320 319 319 318 317 315 313 311 309 308 307 307 307 309 311 312 313 313 313 314 314 313 311 308 306 304 302 302 303 305 306 304 299 293 290 289 287 283 280 278 278 279 280 281 284 286 286 287 288 290 294 299 303 304 303 302 304 310 317 320 318 312 304 294 284 274 265 258 256 255 254 249 242 238 233 228 225 225 224 222
315 315 315 318 322 325 324 321 319 318 318 316 314 311 308 305 304 304 306 309 311 312 312 313 314 315 314 313 311 308 306 305 304 305 306 307 308 308 305 300 296 294 294 289 283 276 271 270 271 273 275 278 282 284 286 286 288 294 301 303 302 300 300 303 308 312 313 311 304 294 284 277 271 265 261 257 253 247 240 235 231 227 224 221 217 212
319 318 318 319 320 320 318 317 317 319 320 320 317 313 308 304 302 303 308 312 314 314 314 315 316 317 316 314 311 309 307 306 307 308 309 310 311 310 309 306 303 302 301 298 291 282 273 268 267 270 272 274 277 279 280 280 282 287 292 295 295 295 295 294 296 302 309 308 302 292 284 280 278 274 269 262 255 250 244 237 231 226 222 217 212 204
315 314 314 314 315 315 314 315 318 321 324 324 320 316 311 308 308 310 314 316 316 315 316 317 318 317 316 314 312 310 308 308 308 309 310 310 310 309 308 307 306 306 305 303 299 292 282 273 268 268 270 273 275 277 277 277 277 278 280 285 289 291 291 289 290 297 307 310 310 311 315 318 313 303 286 271 260 252 247 241 234 226 219 213 209 203
312 311 312 313 313 314 314 316 318 321 323 325 324 323 322 322 322 322 320 317 315 315 315 316 317 316 314 311 309 309 308 309 309 309 309 309 309 309 308 308 308 307 306 304 301 297 292 283 273 268 269 271 272 273 275 276 275 273 273 278 282 285 285 286 291 299 303 304 310 324 340 345 342 334 318 294 270 254 245 240 236 229 219 210 204 200
309 309 311 312 314 316 317 318 318 320 323 324 325 325 326 327 326 324 320 317 314 314 314 314 315 315 312 309 307 307 308 309 310 310 310 310 310 310 310 311 311 311 308 301 297 295 294 288 280 274 271 270 268 268 271 274 274 273 272 274 274 274 274 282 290 293 293 290 290 297 313 324 328 327 323 312 289 260 242 235 230 225 217 209 202 196
306 308 310 313 316 318 318 318 319 320 321 321 319 318 319 321 322 321 318 315 313 313 312 313 314 313 310 308 308 308 308 308 308 309 311 312 312 312 312 312 312 311 309 302 296 291 288 285 283 281 278 273 268 267 268 271 273 274 272 270 268 268 272 278 284 285 281 278 276 279 291 302 309 313 315 311 299 273 240 225 219 215 210 205 199 194
305 307 309 312 314 316 316 316 317 318 317 316 314 314 315 317 318 318 316 314 312 312 312 312 312 310 307 306 307 308 308 308 308 308 309 311 312 313 313 312 311 309 307 304 300 295 288 281 279 279 279 276 272 269 269 268 269 270 268 265 263 265 273 281 285 284 279 273 268 268 276 288 297 303 304 298 294 285 248 215 207 203 200 198 195 192
303 305 307 309 311 312 312 313 314 314 313 312 312 313 314 316 317 317 315 314 312 311 311 311 310 307 304 303 304 304 304 304 304 306 307 309 311 312 312 312 312 311 308 306 303 299 293 286 279 275 272 272 272 273 273 271 268 264 262 260 260 265 276 285 288 289 286 279 271 265 267 277 285 289 288 284 282 278 265 214 192 190 190 190 189 189
302 303 305 306 307 308 308 309 310 310 310 310 311 312 314 315 316 316 314 313 313 311 310 310 308 306 303 302 301 300 298 297 299 301 303 305 307 309 310 312 312 312 312 310 307 303 298 291 282 273 266 263 265 269 273 274 273 272 272 272 275 279 283 285 287 289 289 284 276 267 262 263 265 267 272 272 269 264 257 234 188 178 180 183 184 185
301 301 302 303 303 304 305 306 306 307 307 308 309 311 313 315 316 315 313 312 311 310 308 307 306 304 303 302 302 300 297 296 295 296 299 301 303 305 307 309 310 311 311 311 310 307 301 294 283 272 264 257 256 259 265 269 273 277 282 286 288 287 283 280 282 284 286 284 278 269 260 258 259 260 259 257 254 247 238 229 203 180 175 177 179 182
301 300 300 300 300 301 302 303 304 304 304 305 307 310 313 315 315 314 313 312 310 308 307 305 303 301 300 301 302 301 299 298 297 297 298 300 302 303 304 306 307 308 309 310 309 306 301 292 281 271 263 256 251 251 254 260 266 270 274 277 277 275 273 272 273 277 281 282 278 271 261 257 256 254 248 243 239 233 222 212 205 194 181 176 176 178
302 301 300 299 299 300 300 301 301 300 300 302 306 309 312 314 314 314 313 311 310 308 307 305 301 297 295 296 298 299 298 297 296 296 298 302 304 305 305 307 308 309 309 309 308 306 300 288 277 271 267 260 254 248 245 249 255 260 263 264 264 262 261 261 264 267 271 274 273 270 263 256 248 241 233 229 226 221 209 199 199 199 193 184 179 177
Height
769 768 767 766 765 763 761 761 761 760 757 756 756 755 753 752 751 749 748 747 746 745 744 743 742 741 740 739 739 738 737 736 736 735 735 734 734 733 733 732 732 732 731 731 731 731 731 730 730 730 729 729 729 728 728 728 728 728 728 728 728 728 728 728 728 729 729 729 729 730 730 730 731 732 733 735 736 737 738 739 740 741 742 743 744 746
769 767 766 766 765 763 761 761 761 760 758 756 755 754 753 751 750 748 747 746 746 745 744 742 741 740 739 738 737 736 735 734 734 733 732 731 731 731 730 730 729 729 729 729 729 729 729 728 728 728 727 727 727 726 726 726 726 726 726 726 726 726 726 726 726 726 727 727 727 727 728 728 729 730 731 732 734 735 736 736 737 738 740 741 742 743
769 767 766 766 765 764 761 760 760 760 759 757 755 754 753 751 749 748 747 746 744 743 743 741 740 739 737 736 735 735 734 733 732 731 730 729 729 728 728 727 727 726 726 726 726 726 726 726 726 726 726 725 725 725 724 724 724 724 724 723 723 723 723 724 724 725 725 725 725 725 726 726 727 728 729 730 731 732 733 734 735 736 737 738 739 741
769 767 766 765 764 763 762 761 760 759 758 756 755 753 752 751 749 748 746 745 744 742 741 740 739 737 736 735 734 733 732 731 730 729 728 727 726 726 725 725 724 724 724 724 724 724 724 724 724 724 723 723 723 722 722 722 722 721 721 721 721 721 721 721 722 722 723 723 723 723 724 724 725 725 726 727 729 730 731 731 732 733 734 735 736 738
770 768 766 766 764 762 761 761 760 758 757 756 754 753 752 750 749 747 746 745 743 741 740 739 738 736 735 733 732 731 730 729 728 727 726 725 724 724 723 722 722 721 721 721 721 721 721 721 721 721 721 721 721 720 720 720 720 719 719 719 719 719 719 719 719 720 720 721 721 721 721 722 722 723 724 725 726 727 728 729 729 730 731 733 734 736
769 769 767 766 765 763 761 760 759 758 756 755 753 752 751 750 748 746 745 744 742 741 739 738 736 735 733 731 730 729 728 727 726 726 724 723 722 721 721 720 719 719 718 718 718 718 718 718 718 718 718 718 718 718 717 717 717 717 717 717 716 716 716 716 717 717 718 718 718 718 719 720 721 721 722 723 723 724 725 726 727 728 729 730 731 733
768 768 767 766 764 763 761 760 759 758 756 754 752 751 750 749 747 746 744 743 742 740 738 736 735 734 732 730 729 728 726 725 724 723 722 721 721 720 719 718 717 716 716 716 716 716 716 716 716 716 716 715 715 715 715 715 715 715 715 715 714 714 714 714 714 715 715 716 716 716 717 717 718 719 720 720 721 722 723 724 726 726 727 728 729 731
768 766 766 766 764 762 761 760 759 758 757 755 752 750 748 747 746 745 743 742 741 739 737 735 733 732 731 729 728 726 725 724 722 721 720 719 718 718 717 716 715 714 713 713 713 713 713 713 713 713 713 712 712 712 712 712 712 712 712 712 712 712 712 712 712 712 713 713 714 714 715 715 716 716 717 718 719 720 721 721 723 724 725 726 727 729
768 766 765 765 764 762 759 758 757 758 757 755 753 751 749 746 744 743 742 740 739 738 737 734 732 730 729 728 727 726 724 722 721 720 718 717 716 716 715 714 713 712 711 711 711 710 710 710 710 710 710 710 710 709 709 709 709 710 710 710 710 710 710 710 710 710 711 711 711 712 713 713 714 714 715 715 716 717 718 719 720 721 722 724 725 726
769 767 765 763 763 762 760 757 756 756 757 755 753 752 751 748 745 741 740 738 737 737 736 734 732 730 728 727 726 725 723 721 720 718 717 716 715 713 712 712 711 710 709 708 708 707 707 707 707 707 707 707 707 707 707 707 707 707 707 708 708 708 708 708 708 708 709 709 709 710 710 711 711 712 713 713 714 715 716 716 718 719 720 721 723 725
767 766 765 762 761 761 760 758 756 755 755 754 752 751 750 749 746 743 739 737 736 736 735 733 732 730 728 726 724 724 722 720 718 717 716 714 713 712 711 710 709 708 707 706 705 705 705 705 705 705 705 705 705 705 704 704 704 704 705 705 705 706 706 706 706 706 706 707 707 708 708 709 709 710 711 711 712 713 714 714 716 716 717 719 720 722
767 765 764 762 761 759 758 757 755 754 753 752 751 748 747 747 746 745 741 737 736 735 734 732 731 730 728 726 724 722 721 720 717 716 714 713 711 710 709 708 707 706 705 704 703 702 702 702 702 702 702 702 702 702 702 701 701 701 702 702 702 703 703 704 704 704 705 705 705 706 706 706 707 708 708 709 710 711 712 713 713 714 715 716 718 720
766 765 763 761 760 759 757 756 754 753 752 751 750 748 746 745 745 744 742 738 736 735 734 731 728 727 727 726 724 722 721 719 717 715 713 711 710 709 708 707 706 705 704 703 701 700 700 699 699 699 699 699 699 699 699 699 699 699 699 700 700 700 701 701 701 702 702 703 703 703 704 704 705 706 706 707 707 708 710 711 711 712 713 714 716 717
766 765 763 761 760 758 757 756 754 752 751 751 750 748 746 745 744 743 741 737 735 734 734 731 727 725 725 725 724 722 720 718 716 713 712 711 710 709 708 706 705 704 703 702 701 699 698 697 696 696 696 696 696 696 696 696 696 696 696 697 697 698 698 698 699 699 700 700 701 701 701 702 702 703 704 704 705 706 707 708 709 710 711 712 713 715
766 764 762 761 759 758 757 756 754 752 750 750 749 747 745 744 743 742 740 737 734 733 732 730 726 724 724 723 723 721 719 717 715 712 711 710 709 708 707 706 704 703 702 701 700 699 698 697 695 694 694 694 693 693 693 693 694 694 694 694 695 695 695 696 696 697 697 698 698 698 699 699 700 700 701 702 703 704 705 706 706 707 708 710 711 712
766 764 762 760 759 757 757 756 754 751 750 749 748 747 745 743 741 741 740 737 735 733 731 729 726 723 721 722 722 721 719 716 714 712 711 709 707 707 706 705 702 701 700 700 699 697 697 696 695 694 693 692 691 690 691 691 691 691 691 692 692 692 693 693 694 694 695 695 696 696 696 697 697 698 699 699 700 701 702 703 704 705 706 707 708 709
765 764 762 760 758 756 756 755 753 752 750 749 747 746 746 743 741 740 739 737 735 733 731 730 727 724 721 720 720 721 720 716 714 711 711 708 706 705 706 705 702 700 699 698 697 696 695 695 694 694 692 691 690 689 688 689 689 689 689 690 690 690 691 691 691 692 692 692 693 693 694 694 695 696 696 697 698 699 700 700 701 702 703 704 706 707
763 763 761 759 757 756 754 753 752 751 749 748 747 746 744 743 742 741 739 737 736 734 732 731 729 726 723 720 718 719 720 718 714 711 710 708 705 704 704 704 701 699 698 696 695 694 694 693 693 692 691 691 689 688 687 687 687 687 687 688 688 688 688 689 689 690 690 690 691 691 691 692 692 693 694 695 696 696 697 698 699 700 701 702 703 705
761 761 760 758 756 754 753 752 751 750 748 747 746 745 743 742 741 740 739 737 735 734 732 730 728 726 724 721 718 718 720 718 715 712 710 708 705 703 702 702 700 698 696 695 694 692 692 691 691 691 690 689 688 688 687 686 686 686 686 686 686 686 686 687 687 687 688 688 688 689 689 690 690 691 692 693 694 694 695 696 696 697 699 700 701 702
760 759 758 757 755 753 751 751 750 749 747 746 745 744 742 741 740 739 737 736 734 733 731 729 726 724 723 721 718 717 718 717 715 712 709 707 705 702 701 701 699 696 694 693 692 691 690 689 689 688 688 688 688 687 686 686 685 684 684 684 684 684 685 685 685 685 686 686 686 686 687 687 688 689 689 690 691 692 693 694 695 696 697 698 699 701
759 757 756 756 755 752 750 748 748 747 746 745 744 742 741 739 738 736 735 734 732 731 729 728 725 723 721 719 717 715 716 716 714 711 708 706 704 701 700 699 698 695 693 691 690 690 689 688 687 686 686 686 686 686 685 684 684 683 683 683 683 683 683 683 683 683 683 684 684 685 685 685 686 686 687 688 689 689 691 691 692 694 695 696 697 698
757 756 754 754 753 751 749 746 746 745 744 743 742 740 739 737 736 734 733 732 731 729 727 726 724 722 720 718 716 714 714 714 712 710 708 706 702 700 699 699 697 694 691 689 688 688 687 686 685 685 684 684 684 684 684 684 683 682 681 681 681 681 681 681 681 681 681 682 682 682 683 683 684 684 685 685 686 687 688 689 690 691 693 694 695 696
756 754 752 752 751 750 747 745 744 743 742 741 740 738 737 736 734 732 731 729 728 726 725 724 722 720 719 717 715 712 711 710 710 709 708 705 701 698 698 698 696 692 689 687 687 686 685 684 683 683 682 682 682 682 682 682 682 681 680 679 679 679 679 679 679 679 680 680 680 681 681 681 681 682 683 683 684 684 686 686 688 689 690 691 693 694
754 752 751 750 748 747 746 744 742 741 740 739 737 736 735 733 732 730 729 727 726 724 723 721 720 718 716 715 712 710 708 707 707 707 706 703 699 697 697 696 694 691 687 686 686 684 683 682 681 681 681 681 680 680 680 680 680 679 679 678 678 677 677 677 677 677 678 678 678 679 679 679 680 680 681 681 681 682 683 684 685 686 688 689 690 691
752 751 749 748 746 746 744 742 741 739 738 736 735 734 732 731 730 729 727 726 724 722 721 719 717 715 713 711 710 708 706 705 705 704 703 701 698 696 695 694 692 689 686 685 684 682 681 679 679 679 679 678 678 678 678 678 677 677 677 677 676 676 676 676 676 676 676 676 676 677 677 677 678 678 678 679 680 680 681 681 682 684 685 686 688 689
751 749 748 746 745 744 742 741 739 738 737 735 733 732 731 729 728 726 725 724 723 721 720 717 715 712 711 710 708 706 704 703 702 702 701 699 697 695 693 692 691 689 686 684 682 681 679 677 676 677 677 676 676 676 676 675 675 675 675 675 675 675 674 673 673 673 674 674 674 675 675 676 676 676 676 677 677 678 679 679 680 681 682 684 685 686
748 747 745 744 742 741 740 738 737 736 735 733 732 731 729 727 726 724 723 722 721 720 718 716 713 711 710 708 706 704 703 701 701 700 699 699 696 694 691 690 689 688 686 684 681 679 678 676 674 674 674 673 673 673 673 673 672 672 672 672 673 673 672 671 671 671 671 672 672 673 673 673 674 674 675 675 676 676 677 677 678 679 680 681 683 684
745 744 742 741 739 738 737 736 734 733 732 731 730 729 727 726 724 722 721 720 720 719 717 715 713 711 709 707 705 703 701 700 698 698 698 698 696 693 690 688 688 687 686 684 681 678 676 674 672 671 671 671 671 671 671 671 671 670 670 670 670 670 670 669 669 669 670 670 671 671 671 671 671 672 672 673 673 674 675 676 676 677 678 679 680 681
742 741 740 738 736 735 734 733 732 731 730 728 727 726 725 724 722 721 720 719 718 717 715 713 711 710 707 705 703 701 699 698 696 696 697 696 694 691 689 687 687 686 686 683 680 677 674 672 670 669 668 668 668 669 669 669 668 668 668 668 667 667 666 666 666 667 668 668 668 669 669 669 670 670 670 671 671 672 673 674 675 676 676 677 678 679
740 739 737 735 734 732 731 730 729 728 727 726 725 724 723 722 721 720 719 718 717 716 714 712 710 708 706 704 702 700 697 696 695 696 696 695 692 690 688 687 686 686 685 683 680 677 673 671 669 668 667 666 666 666 666 666 666 666 666 666 665 664 663 663 664 665 666 666 666 666 667 667 667 668 668 669 670 670 671 672 673 673 674 675 676 676
738 737 735 733 732 730 729 728 728 726 725 724 722 721 720 720 719 718 717 717 716 715 713 711 709 707 706 705 702 699 696 694 694 695 695 694 691 689 688 687 686 685 684 683 681 678 675 672 670 669 668 666 665 665 664 664 664 663 663 663 663 662 661 661 662 663 664 664 664 664 665 665 665 666 666 666 667 668 669 670 671 671 672 673 674 674
737 736 734 733 731 729 728 727 726 725 723 722 721 719 718 718 717 716 716 715 714 713 711 710 708 707 706 704 702 700 696 694 693 693 694 692 690 689 688 687 686 685 684 683 682 680 677 675 672 671 670 669 667 665 664 663 661 661 661 661 661 660 660 660 661 662 663 663 663 663 663 663 663 663 663 664 665 666 666 667 669 670 670 671 671 672
736 735 733 731 730 729 727 726 725 723 722 721 719 718 717 716 716 715 714 713 712 711 710 709 707 706 704 702 701 698 696 693 692 692 692 691 689 687 686 686 685 684 683 682 681 680 678 676 674 672 671 670 669 667 665 663 661 661 660 660 659 659 659 660 661 661 661 662 662 661 661 661 661 661 661 661 662 663 664 665 666 667 668 669 669 670
735 733 732 730 729 727 726 724 723 722 721 719 718 717 716 716 715 714 713 712 711 710 709 708 706 705 703 701 698 696 694 692 691 691 691 690 688 686 685 684 683 683 682 681 679 678 677 676 675 674 672 670 669 668 666 665 663 662 661 660 659 659 659 660 660 660 660 661 661 660 660 660 659 659 659 659 660 661 661 662 663 664 665 666 667 668
733 732 730 729 727 726 724 722 721 720 719 718 717 716 716 714 713 712 711 711 709 708 707 706 705 704 702 699 697 695 693 691 691 690 690 689 687 686 684 683 682 681 681 679 678 677 676 676 675 674 672 670 668 667 666 666 664 663 661 661 660 660 660 659 659 659 659 659 659 659 658 658 658 658 657 657 658 658 659 660 661 662 663 664 665 666
732 730 728 727 726 724 723 721 720 719 718 717 716 715 714 713 712 711 710 709 708 706 706 704 703 702 701 699 697 694 692 691 689 688 688 688 687 685 683 682 681 681 680 679 678 678 677 676 675 674 673 671 669 667 666 665 665 663 662 661 661 660 659 659 658 658 658 658 658 657 657 657 657 657 656 656 656 656 657 658 659 660 661 662 663 664
730 728 727 726 725 723 721 720 719 718 717 716 715 714 713 712 711 710 709 707 706 705 703 702 701 700 699 697 696 694 692 690 688 687 686 686 686 685 684 682 681 681 681 680 679 678 677 676 674 673 672 671 670 668 666 665 664 664 662 661 661 660 659 658 658 657 657 656 656 656 656 656 656 656 656 655 655 655 656 656 657 658 659 660 661 662
729 727 726 724 723 722 721 719 718 717 716 715 714 712 711 711 710 708 707 706 705 703 702 701 699 698 697 696 694 692 690 688 687 686 685 685 684 684 683 681 680 679 679 679 678 677 676 675 674 672 671 670 669 668 667 666 665 664 663 662 661 660 659 658 657 657 656 656 655 654 654 654 654 654 654 654 654 654 654 655 655 656 657 658 660 661
727 726 724 723 722 721 720 719 718 717 716 714 713 711 710 709 708 707 706 705 703 702 701 699 698 696 695 693 692 690 689 687 686 685 684 683 682 682 681 680 678 677 677 677 677 676 676 674 673 671 670 669 667 666 666 666 665 664 663 662 661 660 659 658 657 656 656 655 654 653 653 653 653 653 653 653 653 653 653 653 653 654 656 656 658 659
727 726 724 723 722 721 720 719 718 716 715 713 711 710 709 707 706 705 704 703 702 701 699 698 696 695 693 691 690 688 687 686 684 683 682 681 681 680 679 678 676 676 675 675 675 674 674 672 671 670 669 668 667 666 665 665 664 664 663 662 660 659 658 658 657 656 655 654 654 653 652 652 651 651 651 651 651 651 651 651 652 652 653 655 656 657
727 726 724 723 722 721 720 718 716 715 713 712 710 708 707 706 705 704 702 701 701 699 698 696 695 693 691 689 687 686 685 683 682 681 681 680 679 678 677 676 675 674 673 673 672 672 671 671 669 668 667 667 666 665 664 664 663 663 663 662 660 659 658 657 656 656 655 654 653 652 651 651 650 650 649 649 649 649 650 650 651 651 652 653 654 655
727 726 724 723 721 720 718 717 715 714 712 711 709 708 706 705 704 703 702 701 699 698 696 695 694 692 689 687 685 683 682 681 681 680 679 678 677 676 675 674 673 672 671 671 670 669 669 669 668 667 666 665 665 663 662 662 662 662 662 661 660 658 657 656 655 655 654 653 652 651 651 650 649 648 648 648 648 648 648 649 649 650 650 651 652 653
727 726 724 722 721 719 717 716 714 712 711 710 708 707 706 705 704 703 702 700 699 697 696 695 693 691 690 687 684 682 680 679 678 678 677 676 675 674 673 672 671 671 670 669 668 667 666 666 666 665 664 664 663 662 661 660 660 660 660 660 659 658 656 654 653 653 652 651 651 650 650 649 648 648 648 647 647 646 646 647 647 648 648 649 650 651
726 725 723 721 720 718 716 715 713 711 710 709 708 707 706 705 704 703 701 700 698 697 696 694 693 691 689 687 684 681 679 677 676 675 675 674 673 672 672 671 670 669 669 668 667 666 665 664 664 663 663 662 661 660 659 658 657 658 658 658 658 657 655 653 652 651 651 651 650 650 649 648 648 648 648 647 646 646 645 645 646 646 647 648 649 650
726 724 722 721 719 717 716 714 712 711 710 709 707 706 705 704 703 702 701 699 698 696 695 694 692 691 688 686 684 681 679 676 674 673 672 671 671 671 670 669 669 668 667 666 666 665 664 663 662 661 661 661 660 659 657 656 656 655 656 656 656 656 654 653 652 651 651 650 650 649 649 648 649 649 649 648 647 646 644 644 644 645 646 646 647 648
725 723 721 720 718 717 716 714 712 711 709 708 706 705 704 703 702 701 700 698 697 696 694 693 692 691 688 686 684 682 680 676 674 671 670 669 669 668 668 668 667 666 666 665 664 663 662 661 661 660 659 659 658 657 656 655 654 654 654 654 654 654 653 652 652 651 651 650 650 649 649 649 649 649 649 648 647 646 645 644 644 644 644 645 646 647
723 722 721 719 718 716 715 713 712 711 709 707 706 704 703 702 701 700 698 697 696 695 693 692 691 690 688 686 684 682 680 677 674 672 670 668 667 666 666 666 665 665 664 663 661 661 660 659 658 658 658 657 656 656 655 654 654 653 652 652 652 651 651 651 651 651 650 650 650 649 649 649 649 649 649 649 647 646 645 644 644 643 644 644 645 646
722 721 719 718 717 715 714 712 711 710 708 706 705 703 702 701 700 699 698 696 696 694 693 692 691 689 687 686 684 682 680 678 675 673 671 669 667 666 665 664 663 662 661 661 660 658 657 656 656 656 656 656 655 654 653 653 653 652 652 651 651 651 651 651 651 650 650 650 649 649 649 649 649 649 649 649 648 647 646 645 644 644 644 644 645 646
721 720 718 717 716 714 713 711 710 709 707 705 704 702 701 700 699 699 697 696 695 694 692 691 690 688 686 684 682 681 679 677 675 673 671 670 668 666 665 663 662 661 660 658 657 656 655 654 653 653 653 653 653 652 652 652 652 652 651 651 651 651 651 651 650 650 650 649 649 649 649 649 649 649 649 649 648 647 646 646 645 645 645 645 645 646
720 718 717 716 715 713 712 710 709 708 706 704 703 701 700 699 698 697 696 695 694 693 692 691 689 687 686 683 681 679 677 676 674 672 671 669 668 666 665 663 662 661 659 657 656 654 653 651 650 650 650 650 651 651 651 651 651 651 651 651 651 651 651 650 650 649 649 649 649 648 649 649 648 648 648 648 648 647 646 646 646 646 646 646 646 646
718 717 716 715 713 712 711 709 708 706 705 703 702 701 699 698 697 696 695 694 693 691 691 689 688 686 685 682 680 678 676 675 673 672 670 669 667 666 665 663 662 661 659 657 656 654 652 651 649 648 647 648 648 649 649 650 650 650 650 650 650 650 650 649 649 649 649 649 648 648 648 648 648 648 647 648 647 647 646 646 646 646 646 646 647 647